Location: Narrabri
(30.3170°S, 149.7830°E)
Time: 08:35:58
(UTC+11:00)

OTV 5 (USA 277) - Pass Details

Date: 16 October 2017
Orbit: 404 x 417 km, 43.0° (Epoch: 07 September)

Event Time Altitude Azimuth Distance (km) Brightness Sun altitude
Exits shadow 04:16:01 25° 108° (ESE) 863 ? -26.4°
Drops below altitude 10° 04:17:37 10° 116° (ESE) 1,474 ? -26.1°
Sets 04:19:45 0° 120° (ESE) 2,339 ? -25.7°
